Location: Newark
(49.8348°N, 24.0280°E)
Time: 15:38:50
(UTC+00:00)

Courier 1B - Pass Details

Date: 25 January 2020
Orbit: 962 x 1209 km, 28.3° (Epoch: 17 February)

Event Time Altitude Azimuth Distance (km) Brightness Sun altitude
Exits shadow 03:31:29 11° 205° (SSW) 3,003 9.8 -24.8°
Maximum altitude 03:34:24 13° 182° (S) 2,834 9.9 -24.3°
Drops below altitude 10° 03:37:46 10° 155° (SSE) 3,110 10.4 -23.8°
Sets 03:42:28 0° 131° (SE) 4,098 11.5 -23.0°
